星链-34855 (STARLINK-34855)

导读

STARLINK-34855是美国于2025年8月31日发射的星链卫星,隶属于SpaceX公司的星链互联网星座项目。该项目旨在构建全球卫星互联网,为全球尤其是偏远地区提供高速网络服务。作为星链星座扩容的一员,它将进一步完善星座网络覆盖,提升全球宽带互联网服务的容量与稳定性。

Basic Information
目录编号:
65416
目录名称:
STARLINK-34855
国际标识:
2025-192N
轨道中心:
EARTH
卫星名称:
星链-34855
卫星全名:
星链-34855 (STARLINK-34855)
卫星状态:
在轨 (已飞行378 天)
发射日期:
2025-08-31 UTC
国别 :
美国 (US)
星等 :
--
This satellite is enrolled in the Space Conjunction Data Service (SCDS) and the current flight risk assessment level is: High Risk
Orbit Information
数据来源 国际轨道数据 AOE轨道数据
星历时间 2026-09-12T01:15:33+0800
1天前
查看轨道信息
2026-09-11T11:00:00+0800
1天前
查看轨道信息
半长轴 6848.789km 6848.816km
偏心率 0.0001113 0.0001666
轨道倾角 53.159° 53.156°
近地点辐角 86.872° 81.161°
升交点赤经 87.732° 90.496°
平近点角 273.241° 240.993°
近地点 469.889km 469.537km
远地点 471.415km 471.821km
周期 94.011分钟 94.012分钟
每日圈数 15.317296 15.317207
Detailed Information
固有亮度:
5
最大亮度:
2.5
卫星平台:
Starlink V1.0
覆盖范围:
全球
运营商:
太空探索技术公司
运营商所在国:
美国
制造商(研发单位):
太空探索技术公司
制造商所在国:
美国
使用方式:
暂无
Satellite Introduction
Starlink 计划是 SpaceX 推出的全球卫星互联网项目,通过发射低轨道卫星,为全球尤其是偏远地区提供高速、低延迟的互联网服务。自 2019 年起,Starlink 已部署数千颗卫星,旨在缩小全球数字鸿沟,推动互联网普及。该项目还为军事、航空等行业提供通信支持,带来广泛经济效益。
2D Orbit Map
3D Orbit Map
Orbit Altitude Analysis Chart
Orbit Inclination Analysis Chart
Orbit Comprehensive Analysis Chart
View Comprehensive Chart
Conjunction Data List
Event ID Objects TCA Miss Dist (km) Collision Risk Probability Collision Risk Index (CRI) Action
CDM_260913-185104-976506-541622
2026-09-13T
18:51:52+0000
0.489 km
远距离
1.463134E-4 高风险 0.78
CDM_260914-050204-976506-541622
2026-09-14T
05:02:35+0000
1.172 km
极远距离
9.825874E-6 低风险 0.55
CDM_260914-203806-541606-930322
2026-09-14T
20:38:16+0000
2.723 km
极远距离
1.498164E-6 低风险 0.39
CDM_260914-061805-631706-541621
2026-09-14T
06:18:51+0000
2.776 km
极远距离
1.480439E-6 低风险 0.38
CDM_260913-161906-541606-883921
2026-09-13T
16:19:55+0000
2.901 km
极远距离
1.390787E-6 低风险 0.38
CDM_260913-171706-541606-966622
2026-09-13T
17:17:26+0000
2.885 km
极远距离
1.358406E-6 低风险 0.38
CDM_260912-205705-322706-541621
2026-09-12T
20:57:48+0000
2.947 km
极远距离
1.30469E-6 低风险 0.37
CDM_260914-151106-538506-541622
2026-09-14T
15:11:23+0000
2.507 km
极远距离
1.223531E-6 低风险 0.37
CDM_260914-032804-976506-541621
2026-09-14T
03:28:37+0000
2.512 km
极远距离
1.182934E-6 低风险 0.36
CDM_260913-202504-976506-541622
2026-09-13T
20:25:49+0000
2.955 km
极远距离
9.392645E-7 极低风险 0.34
Miss Distance Evolution Trend with All Objects
Collision Probability Evolution Trend with All Objects